Wind_Speed
10 9 9 10 10 10 11 11 11 12 12 12 13 13 13 13 13 13 12 12 12 12 13 13 13 13 14 14 14 14 13 13 12 11 11 10 9 7 6 5 4 4 4
10 10 11 11 11 12 13 13 14 14 14 14 15 15 15 15 15 14 13 13 13 13 13 13 13 13 13 14 14 14 14 13 13 12 11 11 10 8 7 6 5 3 3
11 12 12 13 13 14 15 15 16 16 17 17 17 18 17 17 17 16 15 15 14 14 13 13 13 13 12 12 13 13 13 13 12 12 12 11 10 10 8 7 5 4 2
13 14 14 15 15 16 17 17 18 18 19 19 20 20 20 19 19 18 18 17 16 15 14 13 13 13 13 12 12 12 13 13 12 12 12 12 11 10 9 8 7 5 3
16 16 17 17 17 18 19 19 20 20 21 21 22 23 23 22 21 21 20 19 18 16 15 14 14 13 13 13 12 12 12 13 13 12 12 12 11 10 9 8 7 6 5
19 19 20 20 20 21 21 21 21 22 22 23 24 24 25 26 25 23 23 22 20 19 17 16 14 14 13 13 12 12 12 13 13 13 13 13 12 11 10 9 8 7 6
22 22 22 23 23 23 24 24 24 24 24 24 25 25 26 27 27 26 25 24 23 21 19 18 16 15 14 13 13 12 12 13 13 13 13 13 12 11 11 10 10 8 7
24 24 25 25 25 25 26 26 26 27 27 27 27 27 28 28 27 26 26 25 24 23 21 20 18 16 15 14 13 12 12 12 13 13 13 12 12 11 11 10 10 9 8
24 25 26 26 26 27 28 28 29 29 29 29 29 29 29 29 29 28 28 26 25 25 24 22 20 18 17 15 14 13 12 12 13 13 12 12 12 11 10 9 9 9 9
24 25 25 26 26 27 28 29 30 31 31 31 31 31 31 29 29 29 29 28 27 26 26 25 23 21 19 17 15 14 13 13 13 13 12 12 11 11 10 10 10 10 10
22 23 23 23 24 25 26 28 29 31 31 32 32 32 32 31 31 30 30 29 29 28 26 26 25 24 21 19 17 15 14 14 14 13 13 12 11 11 11 10 10 10 11
20 20 21 22 22 23 24 25 26 28 29 30 31 32 33 33 32 31 30 29 29 29 29 28 27 26 24 22 20 18 16 15 14 14 13 12 12 11 11 11 11 11 11
19 19 20 20 21 21 22 23 24 26 27 28 29 31 31 32 33 33 32 29 28 27 28 28 29 28 26 24 22 20 18 17 16 15 13 13 12 12 12 12 12 12 13
18 19 19 20 20 20 21 22 23 24 25 26 27 29 30 30 31 33 33 31 30 29 28 28 27 27 28 26 24 23 21 19 17 16 15 14 13 13 12 13 13 13 14
18 18 18 19 20 20 20 20 21 22 22 23 24 26 28 28 29 30 32 32 31 31 28 28 28 27 27 28 27 25 23 22 19 18 17 15 14 14 14 14 14 14 14
17 18 18 19 19 19 19 19 19 19 19 20 21 22 24 26 27 28 29 30 31 31 30 29 28 28 28 28 28 27 25 24 22 20 19 18 16 16 15 15 15 15 15
17 18 18 19 19 19 19 18 18 18 17 17 18 19 20 22 24 26 27 29 29 30 31 31 29 29 28 28 28 29 28 27 24 23 22 19 18 17 17 17 17 16 16
18 19 19 20 20 20 19 19 18 17 16 16 16 16 17 19 20 22 25 27 28 29 30 31 31 31 30 29 28 29 30 29 27 25 24 22 20 20 19 19 18 18 17
19 19 20 21 21 20 20 19 18 17 16 15 14 14 15 16 18 20 22 24 26 28 29 30 31 31 31 31 29 29 31 31 30 28 26 25 23 22 22 21 20 19 19
19 20 21 21 21 21 20 19 18 17 16 14 13 13 12 13 15 18 20 22 24 26 28 29 30 31 32 32 31 30 31 31 31 30 28 27 26 25 24 23 22 21 21
19 20 21 22 22 21 21 20 19 17 16 15 13 12 11 11 11 14 17 19 21 23 25 27 29 30 31 31 32 31 31 32 32 31 29 29 28 27 26 25 25 24 23
19 20 21 21 22 22 21 21 20 18 17 15 14 13 12 10 10 10 12 15 18 20 22 25 26 29 30 31 32 32 32 33 32 32 32 31 31 30 29 28 27 26 25
19 20 20 21 22 22 22 21 21 19 17 16 15 14 13 11 10 9 10 12 14 17 19 22 24 26 29 30 31 32 32 32 34 34 35 35 34 32 32 31 30 29 28
19 20 21 21 22 22 22 22 22 21 19 18 16 15 14 12 10 9 9 9 11 14 17 19 22 24 27 29 31 32 33 34 35 35 35 36 35 35 34 33 33 32 31
19 20 21 22 22 22 22 22 22 21 20 19 18 17 15 14 12 11 10 10 11 12 15 17 20 23 25 28 30 32 33 34 36 37 37 37 37 36 36 36 35 34 33
18 19 20 21 22 22 22 22 22 22 21 20 19 18 17 16 14 13 11 10 10 12 14 16 19 22 24 27 30 32 32 33 35 37 37 37 38 39 38 37 37 35 35
Wind_Direction
309 303 297 294 292 291 289 286 285 285 285 285 286 287 288 287 286 286 284 280 277 276 273 271 268 264 259 257 252 248 249 248 247 248 248 251 256 260 272 288 306 326 353
305 299 295 291 286 285 283 281 279 278 278 276 276 278 280 281 280 281 280 278 277 276 274 272 269 265 260 257 253 251 248 248 247 246 246 248 252 257 264 274 286 300 332
302 301 297 291 284 280 279 278 277 275 274 274 272 272 273 275 274 274 274 274 274 274 273 271 269 265 260 257 253 250 247 246 245 244 244 246 249 253 258 264 269 273 284
301 300 296 294 286 280 276 275 275 274 272 271 271 269 269 269 268 268 269 269 270 270 270 269 267 263 260 257 253 249 246 245 244 245 244 244 245 249 252 255 256 253 245
297 296 293 290 285 279 277 274 272 271 271 271 269 266 264 264 264 263 264 265 265 264 264 264 263 262 259 257 253 249 245 243 245 245 243 242 243 245 249 248 246 242 233
290 290 288 286 284 281 278 276 275 273 273 270 268 267 265 262 261 262 261 261 261 261 259 260 260 259 257 254 252 250 245 242 242 243 241 241 241 243 246 241 237 233 224
288 286 284 282 281 279 275 273 273 271 271 270 269 267 266 264 260 261 260 259 258 257 257 256 257 256 255 253 251 249 246 242 239 240 239 239 241 243 242 238 232 228 222
290 288 285 282 280 277 274 272 270 270 269 269 269 269 267 263 261 261 260 258 256 254 254 255 254 254 252 250 248 247 246 242 237 237 237 236 239 240 238 233 227 224 215
291 289 287 284 281 278 274 272 271 269 267 268 267 266 267 264 260 259 259 258 256 252 251 252 252 251 249 248 246 245 245 242 237 237 237 235 237 235 231 227 220 216 208
296 293 290 288 285 281 277 274 272 269 267 266 266 264 264 263 260 259 257 256 255 253 250 248 248 247 246 245 243 242 241 240 239 240 237 233 233 229 226 224 217 212 205
303 300 298 294 290 286 281 277 274 271 268 266 265 264 262 260 259 260 258 256 254 252 252 248 245 244 243 242 241 239 238 238 238 238 234 231 227 224 224 221 215 208 202
309 307 304 301 297 292 288 283 279 275 271 267 265 263 260 258 257 259 257 257 256 252 251 248 245 242 240 240 239 236 234 235 235 234 232 230 226 222 219 219 212 204 199
318 315 312 308 304 298 293 289 283 279 274 270 266 263 260 258 256 255 255 255 255 252 250 249 244 242 240 237 236 234 231 231 232 231 228 227 224 220 217 216 210 203 201
326 322 319 317 313 307 301 296 290 285 279 274 268 262 260 258 255 253 253 253 251 249 249 246 245 242 238 236 234 233 231 229 229 229 226 223 222 219 217 214 208 204 201
331 328 326 325 322 317 311 304 298 293 287 280 273 266 259 256 254 252 249 249 248 247 248 246 244 242 238 235 235 233 229 228 227 228 226 222 221 219 217 214 210 205 203
339 337 335 332 329 325 321 315 308 302 295 287 279 270 261 257 254 251 248 246 246 245 245 243 243 242 237 236 233 232 229 227 226 227 226 222 219 219 217 214 210 207 205
348 347 343 340 336 332 329 324 318 311 304 296 286 275 265 259 254 250 247 245 244 243 242 242 241 240 239 238 235 231 229 227 225 226 224 221 219 218 217 214 211 210 207
354 352 348 346 343 340 336 332 328 322 313 305 294 284 273 263 257 252 248 245 243 242 239 238 238 239 237 238 237 233 230 227 225 226 224 222 220 218 216 214 213 210 209
357 354 352 350 348 346 344 342 338 333 325 316 307 294 281 271 261 254 249 245 243 241 239 237 237 237 235 236 237 235 230 226 225 224 225 223 220 219 217 214 214 212 211
360 357 356 354 353 353 352 350 347 344 338 331 321 309 296 281 268 257 250 247 243 240 238 237 236 235 233 234 235 234 232 228 224 223 224 223 222 221 219 216 214 214 213
2 1 360 360 359 359 358 356 354 351 349 346 339 329 315 299 282 265 254 248 244 242 239 238 235 233 231 231 232 232 232 229 225 222 222 222 220 219 219 217 216 216 215
5 4 3 4 3 2 2 0 358 355 352 349 348 345 335 320 303 282 265 254 248 244 240 238 236 232 230 230 231 231 230 228 226 225 223 222 220 219 219 219 219 219 218
9 8 7 6 6 5 5 5 4 1 359 356 352 348 344 334 320 304 283 265 253 246 243 239 238 234 232 230 229 228 228 228 227 228 225 223 222 221 221 221 221 221 221
10 9 8 8 8 8 8 8 7 7 6 3 359 354 350 345 335 318 300 284 265 253 247 242 240 238 235 232 231 231 229 229 227 226 224 223 223 223 222 222 223 224 222
8 9 9 9 9 9 10 10 10 10 9 7 4 360 354 349 342 333 316 297 280 265 255 248 243 240 237 235 233 232 230 229 227 226 225 223 223 224 224 224 224 224 223
7 7 8 9 9 9 10 11 11 11 10 9 7 5 1 356 349 340 328 310 290 274 263 255 249 244 241 238 235 233 231 228 227 225 225 224 224 225 226 225 225 225 225
Height
5897 5896 5895 5894 5894 5893 5893 5892 5892 5891 5891 5891 5890 5890 5890 5889 5889 5889 5889 5888 5888 5888 5887 5887 5887 5887 5887 5887 5887 5887 5887 5888 5888 5888 5888 5889 5889 5888 5888 5888 5887 5887 5886
5895 5894 5893 5892 5892 5891 5891 5890 5890 5889 5889 5888 5888 5888 5887 5887 5887 5887 5887 5887 5886 5886 5886 5886 5885 5885 5885 5885 5885 5885 5886 5886 5886 5887 5887 5887 5887 5887 5887 5887 5887 5887 5886
5893 5892 5891 5890 5889 5889 5888 5888 5887 5887 5886 5886 5885 5885 5885 5885 5884 5884 5884 5884 5884 5884 5884 5884 5883 5883 5883 5883 5883 5884 5884 5884 5885 5885 5885 5886 5886 5886 5886 5886 5886 5886 5886
5890 5889 5888 5887 5886 5885 5885 5884 5884 5883 5883 5883 5882 5882 5882 5882 5881 5881 5881 5881 5882 5882 5882 5882 5881 5881 5881 5881 5881 5882 5882 5882 5883 5883 5884 5884 5884 5885 5885 5885 5885 5886 5886
5887 5886 5885 5884 5883 5882 5881 5880 5880 5879 5879 5879 5878 5878 5878 5878 5878 5878 5878 5878 5879 5879 5879 5879 5879 5879 5879 5879 5880 5880 5880 5881 5881 5882 5882 5882 5883 5883 5884 5884 5884 5885 5885
5884 5883 5882 5880 5879 5878 5877 5876 5876 5875 5875 5874 5874 5874 5873 5873 5874 5874 5874 5875 5875 5876 5876 5876 5877 5877 5877 5877 5878 5878 5879 5879 5879 5880 5880 5880 5881 5882 5882 5882 5883 5884 5884
5880 5878 5877 5875 5874 5873 5872 5871 5871 5870 5870 5869 5869 5868 5868 5868 5869 5869 5870 5870 5871 5872 5873 5873 5874 5874 5875 5875 5876 5876 5877 5877 5877 5878 5878 5879 5879 5880 5880 5881 5882 5883 5883
5875 5873 5871 5870 5869 5867 5866 5865 5865 5864 5864 5863 5863 5863 5863 5863 5864 5864 5865 5866 5867 5868 5869 5870 5871 5872 5872 5873 5874 5874 5875 5875 5875 5876 5876 5876 5877 5878 5879 5879 5880 5881 5882
5870 5867 5865 5864 5862 5861 5860 5859 5858 5858 5857 5857 5857 5857 5857 5857 5858 5859 5860 5861 5862 5863 5865 5866 5867 5868 5869 5870 5871 5872 5872 5873 5873 5874 5874 5875 5876 5876 5877 5878 5879 5880 5881
5864 5862 5860 5858 5856 5855 5853 5852 5851 5851 5850 5850 5850 5850 5851 5851 5852 5853 5854 5855 5857 5858 5860 5861 5863 5864 5866 5867 5868 5869 5870 5871 5871 5872 5872 5873 5874 5874 5875 5877 5878 5879 5880
5859 5856 5854 5852 5850 5848 5846 5845 5844 5843 5843 5843 5843 5843 5844 5844 5845 5847 5848 5849 5851 5853 5854 5856 5858 5860 5862 5863 5865 5866 5867 5868 5869 5869 5870 5871 5872 5873 5874 5875 5876 5878 5879
5855 5852 5849 5847 5844 5842 5840 5838 5837 5836 5835 5835 5835 5835 5836 5837 5838 5840 5841 5843 5845 5846 5849 5851 5853 5855 5857 5859 5861 5863 5864 5865 5866 5867 5868 5869 5870 5871 5872 5874 5875 5876 5878
5850 5847 5845 5842 5839 5836 5834 5832 5830 5829 5828 5827 5827 5827 5828 5829 5831 5832 5834 5836 5838 5840 5842 5844 5847 5849 5852 5855 5857 5859 5861 5862 5863 5865 5866 5867 5868 5869 5871 5872 5873 5875 5877
5847 5844 5841 5837 5834 5831 5829 5826 5824 5822 5820 5819 5819 5819 5820 5821 5823 5825 5827 5829 5831 5833 5835 5838 5841 5843 5847 5850 5852 5855 5857 5859 5860 5862 5863 5865 5866 5867 5869 5871 5872 5874 5875
5844 5841 5837 5834 5830 5827 5824 5821 5818 5816 5814 5812 5811 5811 5812 5813 5815 5817 5819 5821 5824 5826 5829 5832 5835 5838 5841 5844 5847 5850 5853 5855 5857 5859 5861 5862 5864 5865 5867 5869 5871 5872 5874
5842 5838 5834 5831 5827 5823 5820 5816 5813 5810 5808 5806 5804 5804 5804 5806 5807 5809 5811 5813 5816 5819 5822 5826 5829 5832 5835 5838 5842 5845 5848 5850 5853 5855 5857 5859 5861 5863 5865 5867 5869 5871 5873
5840 5836 5832 5828 5824 5820 5816 5812 5809 5806 5803 5801 5799 5798 5798 5799 5800 5802 5804 5806 5809 5812 5815 5819 5822 5826 5829 5832 5836 5839 5842 5846 5848 5851 5853 5856 5858 5860 5862 5865 5867 5869 5871
5838 5834 5830 5826 5821 5817 5813 5809 5805 5801 5799 5796 5794 5793 5793 5793 5794 5795 5797 5799 5802 5805 5808 5812 5815 5819 5822 5826 5829 5833 5837 5840 5844 5846 5849 5852 5855 5857 5859 5862 5864 5867 5869
5836 5832 5828 5824 5819 5815 5810 5806 5802 5798 5795 5793 5791 5789 5788 5788 5789 5790 5791 5793 5795 5798 5801 5804 5808 5812 5815 5819 5823 5827 5831 5834 5838 5841 5844 5848 5851 5854 5856 5859 5861 5864 5867
5836 5832 5827 5822 5818 5813 5808 5804 5800 5796 5793 5790 5787 5785 5784 5783 5783 5784 5785 5787 5789 5792 5795 5798 5801 5804 5808 5812 5816 5820 5824 5828 5832 5836 5839 5843 5846 5849 5852 5855 5858 5861 5864
5835 5831 5827 5822 5817 5812 5807 5803 5798 5794 5791 5788 5785 5783 5781 5780 5779 5779 5780 5782 5783 5786 5788 5791 5794 5798 5801 5805 5810 5814 5818 5821 5826 5830 5834 5838 5841 5844 5848 5851 5854 5857 5860
5835 5831 5826 5821 5816 5812 5807 5802 5798 5794 5790 5787 5784 5781 5779 5777 5776 5776 5776 5777 5778 5780 5782 5785 5788 5791 5795 5798 5803 5807 5811 5816 5819 5823 5828 5832 5836 5839 5843 5846 5850 5853 5856
5835 5831 5826 5822 5817 5812 5807 5802 5797 5793 5789 5786 5783 5780 5778 5776 5774 5773 5773 5773 5774 5775 5777 5779 5782 5785 5788 5791 5796 5800 5804 5808 5813 5817 5821 5825 5829 5833 5837 5841 5844 5848 5851
5835 5831 5827 5822 5817 5812 5807 5802 5797 5793 5789 5785 5782 5779 5776 5774 5773 5771 5770 5770 5770 5771 5772 5774 5776 5779 5781 5785 5788 5793 5797 5801 5805 5809 5814 5818 5823 5827 5831 5835 5838 5842 5846
5836 5831 5827 5822 5817 5812 5807 5803 5798 5793 5789 5785 5782 5779 5776 5773 5771 5770 5768 5767 5767 5767 5768 5769 5771 5773 5775 5778 5781 5785 5789 5793 5797 5802 5806 5811 5815 5820 5824 5828 5832 5835 5839
5836 5832 5827 5823 5818 5813 5808 5803 5799 5794 5790 5786 5782 5779 5775 5773 5770 5768 5766 5765 5764 5764 5764 5765 5766 5767 5769 5771 5774 5777 5781 5785 5790 5794 5798 5802 5807 5812 5816 5821 5825 5829 5833